Zurück zum Katalog

TOMORROW-S4

AktivKommunikationVLEO
NORAD 62386·PAYLOAD·🇺🇸 United States

Gestartet Dec 21, 2024 von Vandenberg Space Force Base

Loading…

Nächste Überflüge (nächste 24 Stunden)

TLE

AktuellSource: Space-Track

Epoche: Sep 14, 2026, 03:32 UTC

1 62386U 24247K   26257.14788124  .00005488  00000-0  19458-3 0  9996
2 62386  44.9813 165.7552 0004489 198.2329 161.8394 15.30161196 96578

Verfolge TOMORROW-S4 in Echtzeit mit AllMySat

Download on the App Store